Home > Weather > Breckenridge > Past weeks

Flag for USA Past Weather in Breckenridge, Colorado, USA — Yesterday and Last 2 Weeks

Now
24 °F

Clear.


Feels Like: 24 °F
Forecast: 31 / 54 °F
Wind: No wind

Location: Lake County Airport

Current Time: May 26, 2016 at 4:51:41 AM

Latest Report: May 26, 2016 at 3:53 AM


Visibility: 10 mi

Pressure: 29.84 "Hg (20.58 "Hg at 2921m altitude)

Humidity: 62%

Dew Point: 13 °F

Location of BreckenridgeLocation

Past Weather in Breckenridge — Graph

°F

Breckenridge Temperature Yesterday

Maximum temperature yesterday: 54 °F (at 4:53 PM)
Minimum temperature yesterday: 29 °F (at 11:53 PM)
Average temperature yesterday: 43 °F

High & Low Weather Summary for the Past Weeks

 TemperatureHumidityPressure
High64 °F (May 21, 3:53 PM)100% (May 17, 12:53 AM)30.39 "Hg (May 17, 12:53 AM)
Low22 °F (May 12, 4:53 AM)9% (May 25, 4:53 PM)29.51 "Hg (May 22, 1:53 PM)
Average41 °F51%29.87 "Hg
* Reported May 11 2:53 AM — May 26 2:53 AM, Breckenridge, Weather by CustomWeather, © 2016

Note: Actual official high and low records may vary slightly from our data, if they occured in-between our weather recording intervals... More about our weather records

Advertising

Breckenridge Weather History for the Previous 24 Hours

Scroll right to see more
 ConditionsComfort  
Time TempWeatherWind HumidityBarometerVisibility
2:53 AM
Thu, May 26
25 °FPassing clouds.No wind53%29.85 "Hg10 mi
1:53 AM30 °FClear.7 mph40%29.85 "Hg10 mi
12:53 AM30 °FClear.5 mph41%29.87 "Hg10 mi
11:53 PM
Wed, May 25
29 °FClear.3 mph43%29.90 "Hg10 mi
10:53 PM31 °FClear.3 mph40%29.90 "Hg10 mi
9:53 PM35 °FClear.5 mph31%29.88 "Hg10 mi
8:53 PM39 °FSunny.5 mph24%29.85 "Hg10 mi
7:53 PM48 °FSunny.7 mph12%29.81 "Hg10 mi
6:53 PM50 °FSunny.8 mph9%29.81 "Hg10 mi
5:53 PM51 °FSunny.10 mph9%29.83 "Hg10 mi
4:53 PM54 °FSunny.20 mph9%29.78 "Hg10 mi
3:53 PM53 °FSunny.16 mph10%29.80 "Hg10 mi
2:53 PM53 °FSunny.12 mph11%29.82 "Hg10 mi
1:53 PM52 °FSunny.21 mph10%29.82 "Hg10 mi
12:53 PM50 °FSunny.10 mph11%29.85 "Hg10 mi
11:53 AM49 °FSunny.13 mph11%29.83 "Hg10 mi
10:53 AM49 °FSunny.16 mph13%29.80 "Hg10 mi
9:53 AM46 °FSunny.9 mph17%29.81 "Hg10 mi
8:53 AM44 °FSunny.9 mph22%29.83 "Hg10 mi
7:53 AM42 °FSunny.9 mph27%29.82 "Hg10 mi
6:53 AM38 °FSunny.6 mph36%29.80 "Hg10 mi
5:53 AM34 °FClear.3 mph46%29.79 "Hg10 mi
4:53 AM37 °FClear.8 mph36%29.74 "Hg10 mi
Weather by CustomWeather, © 2016

See weather overviewHow to use our weather pages